Content
SEND FEEDBACK

Daily
Averages
Monthly
Summary
Canada

YELLOWKNIFE, NORTHWEST TERRITORIES


Home > North America > Canada > Northwest Territories
Elevation: 676 feet     Latitude: 62 28N     Longitude: 114 27W

WEATHER
 
SELECT A DAY
Number of Records: 194,086;   Date Range: 1/1/95 - 10/23/14
 
SHARE

PRINT THIS DATA

[ ← Previous Day ]
WEATHER ALMANAC - JANUARY 6, 2013
[ Next Day → ]
[ °C ]   °F
Weather ElementAverageHighLow
Temperature1.3 °F3.2 °F (12:00 pm)-2.2 °F (1:00 am)
Dewpoint-4.7 °F (1:44 am)-11.2 °F (1:00 am)
Humidity67.2 %78 % (2:00 pm)51 % (11:00 am)
Wind Speed4.5 mph8.1 mph (1:00 pm)
Weather ElementAverage
Visibility5.5 mi
Wind DirectionSSW (216.6 °)

Weather ElementTotal
Precipitation---
Heating Degree Days64.5 (Base 65)
Averaged from 39 records on January 6, 2013
WEATHER CONDITIONS BREAKOUT
WIND DIRECTION BREAKOUT
WEATHER BY HOUR - JANUARY 6, 2013
[ °C ]   °F
Local TimeTemperatureDewpointHumidityBarometerVisibilityWind DirectionWind SpeedGust SpeedPrecipitationEventsConditions
1:00 AM-2.2 °F-11.2 °F66 %29.94 in0.2 miSE (140°)1.2 mphFogLight Freezing Fog
1:44 AM-0.4 °F0.0 °F0.0 mi1.2 (2013°)0.00 inLight Freezing Fog80
2:00 AM-0.4 °F-9.4 °F66 %29.91 in0.5 miENE (60°)2.3 mphFogLight Freezing Fog
3:00 AM-0.4 °F-9.4 °F66 %29.90 in0.5 miEast (80°)2.3 mphFogLight Freezing Fog
4:00 AM-0.4 °F-9.4 °F66 %29.88 in0.5 miEast (100°)3.5 mphFogLight Freezing Fog
5:00 AM0.0 °F-9.0 °F53 %29.85 in1.0 miEast (90°)4.6 mphMist
5:00 AM-0.4 °F-9.4 °F66 %29.85 in1.0 miEast (90°)4.6 mphOvercast
5:15 AM-0.4 °F0.0 °F0.0 mi4.6 (2013°)0.00 inLight Snow90
5:38 AM-0.4 °F0.0 °F2.0 miEast (100°)4.6 mphSnowLight Snow
6:00 AM-0.4 °F-7.6 °F72 %29.83 in2.0 miEast (100°)4.6 mphSnowLight Snow
6:18 AM-0.4 °F0.0 °F1.0 miEast (90°)4.6 mphSnowLight Snow
7:00 AM1.4 °F-7.6 °F66 %29.82 in1.0 miENE (70°)4.6 mphSnowLight Snow
7:36 AM1.4 °F0.0 °F0.0 mi4.6 (2013°)0.00 inLight Snow70
8:00 AM1.4 °F-7.6 °F66 %29.80 in0.8 miENE (60°)4.6 mphSnowLight Snow
9:00 AM1.4 °F-7.6 °F66 %29.79 in0.6 miENE (70°)4.6 mphSnowLight Snow
10:00 AM1.4 °F-7.6 °F66 %29.78 in0.8 miENE (60°)4.6 mphMist
10:18 AM1.4 °F0.0 °F1.5 miEast (80°)5.8 mphOvercast
10:42 AM1.4 °F0.0 °F4.0 miEast (80°)6.9 mphSnowLight Snow
11:00 AM1.4 °F-7.6 °F66 %29.77 in5.0 miEast (80°)6.9 mphSnowLight Snow
11:00 AM2.0 °F-7.0 °F51 %29.77 in5.0 miENE (70°)6.9 mphSnowLight Snow
11:37 AM1.4 °F0.0 °F10.0 miENE (60°)6.9 mphSnowLight Snow
12:00 PM3.2 °F-5.8 °F66 %29.75 in12.0 miENE (60°)4.6 mphSnowLight Snow
1:00 PM3.2 °F-4.0 °F72 %29.75 in15.0 miENE (60°)8.1 mphSnowLight Snow
1:46 PM3.2 °F0.0 °F15.0 miENE (70°)6.9 mphSnowLight Snow
2:00 PM3.2 °F-2.2 °F78 %29.74 in15.0 miENE (70°)6.9 mphSnowLight Snow
3:00 PM3.2 °F-2.2 °F78 %29.75 in15.0 miNE (50°)6.9 mphSnowLight Snow
4:00 PM3.2 °F-4.0 °F72 %29.74 in15.0 miENE (70°)4.6 mphSnowLight Snow
5:00 PM3.0 °F-5.0 °F58 %29.74 in15.0 miNE (50°)6.9 mphSnowLight Snow
5:00 PM3.2 °F-4.0 °F72 %29.74 in15.0 miNE (50°)6.9 mphSnowLight Snow
6:00 PM3.2 °F-4.0 °F72 %29.74 in10.0 miNNE (30°)4.6 mphSnowLight Snow
6:12 PM3.2 °F0.0 °F10.0 miNE (40°)3.5 mphSnowLight Snow
6:52 PM3.2 °F0.0 °F2.5 miENE (70°)3.5 mphSnowLight Snow
7:00 PM3.2 °F-4.0 °F72 %29.74 in2.5 miENE (60°)3.5 mphSnowLight Snow
7:21 PM1.4 °F0.0 °F3.0 miENE (70°)3.5 mphSnowLight Snow
8:00 PM1.4 °F-5.8 °F72 %29.73 in15.0 miCalmSnowLight Snow
9:00 PM1.4 °F-7.6 °F66 %29.73 in5.0 miCalmSnowLight Snow
10:00 PM-0.4 °F-7.6 °F72 %29.72 in8.0 miNE (40°)2.3 mphSnowLight Snow
11:00 PM0.0 °F-8.0 °F57 %29.70 in3.0 miENE (70°)1.2 mphSnowLight Snow
11:00 PM-0.4 °F-7.6 °F72 %29.70 in3.0 miENE (70°)2.3 mphSnowLight Snow
Hourly data recorded from CYZF, located miles away from Yellowknife, Northwest Territories







STORIES FROM OUR PARTNERS